Wenatchee, WA

3:35 AM PDT on October 18, 2017 (GMT -0700)
Pangborn Memorial

Weather History for KEAT - August, 2013

Change the Weather History Date:

Monday, August 12, 2013

  Actual Average Record
Temperature  
Mean Temperature 75 °F 68 °F  
Max Temperature 88 °F 84 °F 101 °F (1971)
Min Temperature 61 °F 51 °F 53 °F (1991)
Degree Days  
Heating Degree Days 0 1  
Month to date heating degree days 0 12  
Since 1 June heating degree days 35 251  
Since 1 July heating degree days 0 64  
Cooling Degree Days 10 4  
Month to date cooling degree days 140 54  
Year to date cooling degree days 725 183  
Since 1 June cooling degree days 665 178  
Growing Degree Days 26 (Base 50)    
Moisture  
Dew Point 53 °F    
Average Humidity 50    
Maximum Humidity 73    
Minimum Humidity 26    
Precipitation  
Precipitation 0.00 in 0.02 in 0.23 in (2014)
Month to date precipitation 1.82 0.15  
Year to date precipitation 5.79 10.10  
Snow  
Snow 0.00 in 0.00 in - ()
Month to date snowfall 0.0  
Since 1 June snowfall 0.0  
Since 1 July snowfall 0.0  
Snow Depth -    
Sea Level Pressure  
Sea Level Pressure 29.93 in    
Wind  
Wind Speed 8 mph (NW)    
Max Wind Speed 14 mph    
Max Gust Speed 20 mph    
Visibility 10 miles    
Events      
T = Trace of Precipitation, MM = Missing Value Source: NWS Daily Summary

Daily Weather History Graph

Daily Weather History Graph

Search for Another Location

Airport or City:

Trip Planner

Search our weather history database for the weather conditions in past years. The results will help you decide how hot, cold, wet, or windy it might be!

Date:

Astronomy

Aug. 12, 2013 Rise Set
Actual Time 5:53 AM PDT 8:17 PM PDT
Civil Twilight 5:19 AM PDT 8:51 PM PDT
Nautical Twilight 4:36 AM PDT 9:33 PM PDT
Astronomical Twilight 3:47 AM PDT 10:21 PM PDT
Moon 12:19 PM PDT (8/12) 10:42 PM PDT (8/12)
Length of Visible Light 15h 31m
Length of Day
14h 23m
Waxing Crescent, 32% of the Moon is Illuminated
Aug 12
Waxing Crescent
Aug 14
First Quarter
Aug 20
Full
Aug 28
Last Quarter
Sep 5
New

Hourly Weather History & Observations

Time (PDT) Temp. Heat Index Dew Point Humidity Pressure Visibility Wind Dir Wind Speed Gust Speed Precip Events Conditions
12:55 AM 66.9 °F - 54.0 °F 63% 29.93 in 10.0 mi NW 9.2 mph - N/A   Clear
1:55 AM 66.0 °F - 54.0 °F 65% 29.92 in 10.0 mi NNW 13.8 mph - N/A   Clear
2:55 AM 64.9 °F - 54.0 °F 68% 29.93 in 10.0 mi NW 10.4 mph - N/A   Clear
3:55 AM 64.0 °F - 54.0 °F 70% 29.93 in 10.0 mi NW 10.4 mph - N/A   Clear
4:55 AM 64.0 °F - 54.0 °F 70% 29.93 in 10.0 mi NNW 11.5 mph - N/A   Partly Cloudy
5:55 AM 63.0 °F - 54.0 °F 72% 29.96 in 10.0 mi WNW 5.8 mph - N/A   Clear
6:55 AM 63.0 °F - 54.0 °F 72% 29.97 in 10.0 mi WNW 5.8 mph - N/A   Clear
7:55 AM 64.0 °F - 55.0 °F 73% 29.99 in 10.0 mi West 5.8 mph - N/A   Clear
8:55 AM 66.9 °F - 54.0 °F 63% 29.99 in 10.0 mi WNW 12.7 mph - N/A   Clear
9:55 AM 70.0 °F - 54.0 °F 57% 29.99 in 10.0 mi West 9.2 mph - N/A   Clear
10:55 AM 72.0 °F - 54.0 °F 53% 29.98 in 10.0 mi West 6.9 mph - N/A   Clear
11:55 AM 75.0 °F - 54.0 °F 48% 29.96 in 10.0 mi Variable 3.5 mph - N/A   Clear
12:55 PM 80.1 °F 80.1 °F 55.0 °F 42% 29.94 in 10.0 mi South 4.6 mph - N/A   Clear
1:55 PM 82.0 °F 81.4 °F 55.0 °F 39% 29.92 in 10.0 mi Variable 4.6 mph - N/A   Clear
2:55 PM 84.9 °F 83.2 °F 53.1 °F 33% 29.90 in 10.0 mi ESE 4.6 mph - N/A   Clear
3:55 PM 87.1 °F - 50.0 °F 28% 29.88 in 10.0 mi ESE 5.8 mph - N/A   Clear
4:55 PM 87.1 °F - 50.0 °F 28% 29.86 in 10.0 mi ESE 8.1 mph - N/A   Clear
5:55 PM 88.0 °F - 48.9 °F 26% 29.85 in 10.0 mi SE 6.9 mph - N/A   Clear
6:55 PM 84.0 °F - 51.1 °F 32% 29.85 in 10.0 mi ESE 5.8 mph - N/A   Clear
7:55 PM 81.0 °F - 51.1 °F 35% 29.86 in 10.0 mi ESE 4.6 mph - N/A   Clear
8:55 PM 78.1 °F - 54.0 °F 43% 29.88 in 10.0 mi NNW 9.2 mph - N/A   Clear
10:55 PM 75.0 °F - 54.0 °F 48% 29.93 in 10.0 mi NNW 9.2 mph - N/A   Clear
11:55 PM 73.0 °F - 55.0 °F 53% 29.94 in 10.0 mi NNW 10.4 mph - N/A   Clear